Spokane, WA

1:34 PM PDT on August 24, 2016 (GMT -0700)
Spokane International

Weather History for KGEG - August, 2013

Change the Weather History Date:

Friday, August 2, 2013

  Actual Average Record
Temperature  
Mean Temperature 58 °F 72 °F  
Max Temperature 61 °F 86 °F 100 °F (1961)
Min Temperature 55 °F 58 °F 43 °F (1956)
Degree Days  
Heating Degree Days 7 0  
Month to date heating degree days 7 0  
Since 1 June heating degree days 147 168  
Since 1 July heating degree days 7 32  
Cooling Degree Days 0 7  
Month to date cooling degree days 0 14  
Year to date cooling degree days 362 257  
Since 1 June cooling degree days 332 243  
Growing Degree Days 8 (Base 50)    
Moisture  
Dew Point 55 °F    
Average Humidity 86    
Maximum Humidity 93    
Minimum Humidity 78    
Precipitation  
Precipitation 0.53 in 0.01 in 0.66 in (1996)
Month to date precipitation 0.57 0.03  
Year to date precipitation 7.36 9.55  
Snow  
Snow 0.00 in 0.00 in 0.00 in (2002)
Month to date snowfall 0.0 0.0  
Since 1 June snowfall 0.0 0.0  
Since 1 July snowfall 0.0 0.0  
Snow Depth 0.00 in    
Sea Level Pressure  
Sea Level Pressure 30.01 in    
Wind  
Wind Speed 7 mph (South)    
Max Wind Speed 15 mph    
Max Gust Speed 18 mph    
Visibility 8 miles    
Events Rain    
T = Trace of Precipitation, MM = Missing Value Source: NWS Daily Summary

Daily Weather History Graph

Daily Weather History Graph

Search for Another Location

Airport or City:

Trip Planner

Search our weather history database for the weather conditions in past years. The results will help you decide how hot, cold, wet, or windy it might be!

Date:

Astronomy

Aug. 02, 2013 Rise Set
Actual Time 5:29 AM PDT 8:22 PM PDT
Civil Twilight 4:53 AM PDT 8:58 PM PDT
Nautical Twilight 4:07 AM PDT 9:43 PM PDT
Astronomical Twilight 3:11 AM PDT 10:38 PM PDT
Moon 1:50 AM PDT (8/2) 5:26 PM PDT (8/2)
Length of Visible Light 16h 04m
Length of Day
14h 53m
Waning Crescent, 15% of the Moon is Illuminated
Aug 2
Waning Crescent
Aug 6
New
Aug 14
First Quarter
Aug 20
Full
Aug 28
Last Quarter

Hourly Weather History & Observations

Time (PDT) Temp. Dew Point Humidity Pressure Visibility Wind Dir Wind Speed Gust Speed Precip Events Conditions
12:53 AM 59.0 °F 55.9 °F 90% 29.91 in 10.0 mi ESE 4.6 mph - 0.00 in Rain Light Rain
1:53 AM 59.0 °F 55.9 °F 90% 29.91 in 10.0 mi South 4.6 mph - 0.00 in   Overcast
2:53 AM 59.0 °F 55.0 °F 87% 29.92 in 10.0 mi Calm Calm - N/A   Overcast
3:06 AM 60.8 °F 55.4 °F 82% 29.94 in 10.0 mi SW 8.1 mph - N/A   Mostly Cloudy
3:35 AM 59.0 °F 55.4 °F 88% 29.94 in 10.0 mi WSW 11.5 mph - N/A   Overcast
3:53 AM 59.0 °F 55.9 °F 90% 29.92 in 7.0 mi SW 10.4 mph - 0.00 in   Light Drizzle
4:26 AM 59.0 °F 55.4 °F 88% 29.94 in 7.0 mi SW 10.4 mph - 0.00 in Rain Light Rain
4:53 AM 57.9 °F 55.9 °F 93% 29.92 in 7.0 mi SW 11.5 mph - 0.02 in Rain Light Rain
5:53 AM 55.9 °F 54.0 °F 93% 29.93 in 5.0 mi SW 12.7 mph - 0.06 in Rain Rain
6:19 AM 55.4 °F 53.6 °F 94% 29.96 in 5.0 mi SSW 11.5 mph - 0.04 in Rain Light Rain
6:53 AM 55.9 °F 54.0 °F 93% 29.95 in 7.0 mi SSW 11.5 mph - 0.06 in Rain Light Rain
7:53 AM 55.9 °F 54.0 °F 93% 29.97 in 5.0 mi South 9.2 mph - 0.04 in Rain Rain
8:53 AM 55.9 °F 54.0 °F 93% 29.99 in 4.0 mi SSW 11.5 mph - 0.10 in Rain Rain
9:53 AM 55.9 °F 54.0 °F 93% 30.00 in 3.0 mi SSW 11.5 mph - 0.05 in Rain Light Rain
10:53 AM 55.9 °F 54.0 °F 93% 30.01 in 3.0 mi SSW 10.4 mph - 0.06 in Rain Light Rain
11:53 AM 55.9 °F 54.0 °F 93% 30.03 in 4.0 mi SSW 10.4 mph - 0.09 in Rain Rain
12:53 PM 57.0 °F 54.0 °F 89% 30.04 in 8.0 mi SSW 11.5 mph 18.4 mph 0.02 in Rain Light Rain
1:53 PM 57.0 °F 55.0 °F 93% 30.05 in 8.0 mi SSW 11.5 mph - 0.01 in   Overcast
2:53 PM 57.9 °F 55.0 °F 90% 30.06 in 8.0 mi SSW 10.4 mph - 0.01 in Rain Light Rain
3:53 PM 57.9 °F 55.0 °F 90% 30.06 in 10.0 mi South 8.1 mph - 0.00 in   Overcast
4:53 PM 59.0 °F 55.0 °F 87% 30.06 in 10.0 mi South 6.9 mph - N/A   Overcast
5:53 PM 60.1 °F 55.0 °F 83% 30.05 in 10.0 mi Calm Calm - N/A   Overcast
6:47 PM 60.8 °F 53.6 °F 77% 30.07 in 10.0 mi SSE 4.6 mph - N/A   Overcast
6:53 PM 60.1 °F 54.0 °F 80% 30.06 in 10.0 mi Variable 3.5 mph - N/A   Overcast
7:36 PM 60.8 °F 57.2 °F 88% 30.07 in 10.0 mi East 4.6 mph - 0.00 in   Overcast
7:53 PM 60.1 °F 55.9 °F 86% 30.06 in 9.0 mi ESE 5.8 mph - 0.00 in Rain Light Rain
8:53 PM 59.0 °F 55.9 °F 90% 30.08 in 10.0 mi ESE 4.6 mph - 0.01 in Rain Light Rain
9:53 PM 59.0 °F 55.9 °F 90% 30.08 in 10.0 mi ESE 3.5 mph - 0.00 in   Overcast
10:53 PM 59.0 °F 55.9 °F 90% 30.09 in 10.0 mi Calm Calm - 0.00 in Rain Light Rain
11:53 PM 57.9 °F 54.0 °F 87% 30.09 in 10.0 mi Calm Calm - 0.00 in   Overcast